Aérodrome :
LOGIN :

S'inscrire | Disclaimer

   EN    FR    IT 

 










Légende :    VFR   VFR Marginal   IFR   IFR Intensif   IFR Très Intensif
Visi : 
Plafond : 
>= 8 km
>= 3000ft
5 à 8 km
1000 à 3000 ft
1500m à 5 km
500 à 1000 ft
800 à 1500m
200 à 500 ft
< 800m
< 200 ft
Symboles :   Orages  Brouillard  Fortes neiges  Fortes précipitations  Vent > 20 kt
SIGMETs :   Divers  Orages  Givrage  Turbulence  Onde Orograph.  Cendres Volcan.







- Altitude de l'aérodrome : 39 ft
- Code IATA : ANR


EBAW - Anvers / Antwerpen Deurne

DERNIER METAR :
  • 232320Z AUTO 14006KT CAVOK 13/09 Q0996

METARs EXPIRÉS :
  • 232250Z AUTO 14005KT CAVOK 14/09 Q0996
  • 232220Z AUTO 15005KT CAVOK 15/09 Q0996
  • 232150Z AUTO 16005KT CAVOK 16/09 Q0996
  • 232120Z 13005KT CAVOK 13/09 Q0996 NOSIG
  • 232050Z 12004KT CAVOK 14/09 Q0996 NOSIG

TAF TAF EBAW
Valide du 24 à 00h jusqu'au 24 à 09h UTC


232310Z 2400/2409 17007KT CAVOK
PROB30
TEMPO 2408/2409 18015G25KT
Pas de NOTAMs connus pour ce terrain.



MET'MAP, la Météo Aéronautique d'un coup d'oeil ! - Copyright ORBIFLY Décembre 2007 - Disclaimer

ORBIFLY MET'MAP TEAM :

Programmation & Développement : Alexandra Zaïnal
Conception & Développement : Baudouin d'Aumeries
Co-Programmation & Développement : Marc-Olivier Méhu
Soutien technique & logistique : Manuel Goepfert

Contact : metmap@orbifly.com




SOURCES & CREDITS :

   NOAA